Miscellaneous Local Product
Issued by NWS Hastings, NE

Home | Current Version | Previous Version | Graphics & Text | Print | Product List | Glossary On
Versions: 1 2 3 4 5 6 7 8 9 10 11 12 13 14 15 16 17 18 19 20 21 22 23 24 25 26 27 28 29 30 31 32 33 34 35 36 37 38 39 40 41 42 43 44 45 46 47 48 49 50
579
AXUS43 KGID 092202
MISGRI

GID CWA HOURLY WEATHER ROUNDUP
NATIONAL WEATHER SERVICE HASTINGS NE
400 PM CST FRI DEC 09 2016

NOTE: "FAIR" INDICATES FEW OR NO CLOUDS BELOW 12,000 FEET WITH NO
SIGNIFICANT WEATHER AND/OR OBSTRUCTIONS TO VISIBILITY.

...SOUTH CENTRAL NEBRASKA...

CITY           SKY/WX    TMP DP  RH WIND       PRES   REMARKS
GRAND ISLAND   CLOUDY    22  11  62 S13       30.40S WCI  10
HASTINGS       CLOUDY    23  11  60 S8        30.40R WCI  14
KEARNEY        CLOUDY    25  12  58 S12       30.36S WCI  14
ORD            CLOUDY    21   9  59 SE10      30.36  WCI  10
YORK           CLOUDY    21  12  68 SE14      30.42F WCI   8
AURORA         CLOUDY    22  10  60 S12       30.41S WCI  11
LEXINGTON      PTSUNNY   27  14  57 S9        30.32S WCI  18
HOLDREGE       SUNNY     25  13  58 SE7       30.34R WCI  18
HEBRON         CLOUDY    24  13  63 SE8       30.45R WCI  15

...NEBRASKA PANHANDLE...

CITY           SKY/WX    TMP DP  RH WIND       PRES   REMARKS
CHADRON        NOT AVBL
ALLIANCE       CLOUDY    20   6  55 N13       30.20R WCI   7
SCOTTSBLUFF    SUNNY     26  11  52 E8        30.19R WCI  18
SIDNEY         SUNNY     26  13  57 NE8       30.18R WCI  18

...WESTERN AND NORTH CENTRAL NEBRASKA...

CITY           SKY/WX    TMP DP  RH WIND       PRES   REMARKS
VALENTINE      PTCLDY    19   9  65 NE16      30.33R WCI   4
AINSWORTH      CLOUDY    21   9  58 S5        30.32R WCI  15
ONEILL         FLURRIES  19  10  67 S7        30.40R WCI  10
BROKEN BOW     CLOUDY    24  11  57 S10       30.31R WCI  14
IMPERIAL       SUNNY     32  18  56 N5        30.22R WCI  27
NORTH PLATTE   SUNNY     28  13  53 S8        30.27R WCI  20
MCCOOK         SUNNY     30  17  58 E9        30.27R WCI  22

...EASTERN NEBRASKA...

CITY           SKY/WX    TMP DP  RH WIND       PRES   REMARKS
NORFOLK        CLOUDY    17   8  67 E9        30.43F WCI   6
SO SIOUX CITY  CLOUDY    19   7  59 SE5       30.52F WCI  12
TEKAMAH        CLOUDY    18   9  68 SE3       30.53S
COLUMBUS       CLOUDY    19  10  68 SE7       30.45F WCI  10
ALBION         CLOUDY    20  10  63 SE9       30.41R WCI   9
OMAHA EPPLEY   CLOUDY    21   8  57 E5        30.53F WCI  15
OFFUTT AFB     MOCLDY    21  11  65 E5        30.52S WCI  15
MILLARD        CLOUDY    24  13  63 SE3       30.52S
LINCOLN        CLOUDY    22  12  65 SE8       30.50S WCI  12
NEBRASKA CITY  CLOUDY    22   8  54 SE6       30.51S WCI  15
BEATRICE       CLOUDY    25  11  55 SE6       30.47S WCI  18
FALLS CITY     CLOUDY    25  10  53 SE6       30.52S WCI  18

...NORTHERN KANSAS...

CITY           SKY/WX    TMP DP  RH WIND       PRES   REMARKS
GOODLAND       SUNNY     38  23  55 S7        30.18R WCI  33
HILL CITY      SUNNY     33  15  47 S9        30.31R WCI  25
NORTON         MOCLDY    34  12  40 SE7       30.29R WCI  28
PHILLIPSBURG   PTSUNNY   30  14  51 E7        30.36R WCI  23
SMITH CENTER   CLOUDY    25  12  58 SE8       30.39R WCI  16
BELOIT         CLOUDY    27  12  54 SE10      30.41S WCI  17
HAYS           SUNNY     30  14  51 S18       30.33S WCI  18
RUSSELL        CLOUDY    28  11  48 S18       30.35R WCI  15
CONCORDIA      CLOUDY    25  14  63 S9        30.44R WCI  15
SALINA         CLOUDY    29  14  53 S12       30.45R WCI  19
TOPEKA         CLOUDY    28  12  51 SE8       30.52S WCI  20



USA.gov is the U.S. government's official web portal to all federal, state and local government web resources and services.